TimeEDT,TemperatureF,Dew PointF,Humidity,Sea Level PressureIn,VisibilityMPH,Wind Direction,Wind SpeedMPH,Gust SpeedMPH,PrecipitationIn,Events,Conditions,WindDirDegrees,DateUTC
12:56 AM,75.0,68.0,79,29.82,10.0,SW,5.8,-,0.00,Rain,Light Rain,230,2013-06-27 04:56:00
1:56 AM,72.0,69.1,91,29.78,10.0,NW,3.5,-,0.00,,Clear,320,2013-06-27 05:56:00
2:56 AM,71.1,68.0,90,29.79,10.0,East,3.5,-,N/A,,Clear,100,2013-06-27 06:56:00
3:56 AM,70.0,68.0,93,29.78,9.0,Calm,Calm,-,N/A,,Clear,0,2013-06-27 07:56:00
4:56 AM,69.1,66.9,93,29.80,7.0,Calm,Calm,-,N/A,,Mostly Cloudy,0,2013-06-27 08:56:00
5:56 AM,70.0,66.9,90,29.81,5.0,SSE,3.5,-,0.01,Rain,Light Rain,150,2013-06-27 09:56:00
6:56 AM,72.0,69.1,91,29.81,5.0,South,3.5,-,0.00,,Mostly Cloudy,180,2013-06-27 10:56:00
7:56 AM,75.0,71.1,87,29.80,7.0,SSW,5.8,-,N/A,,Partly Cloudy,210,2013-06-27 11:56:00
8:56 AM,77.0,70.0,79,29.80,9.0,West,3.5,-,N/A,,Mostly Cloudy,260,2013-06-27 12:56:00
9:52 AM,80.6,71.6,74,29.79,9.0,Calm,Calm,-,N/A,,Mostly Cloudy,0,2013-06-27 13:52:00
9:56 AM,80.1,72.0,76,29.79,9.0,Variable,3.5,-,N/A,,Mostly Cloudy,0,2013-06-27 13:56:00
10:19 AM,78.8,69.8,74,29.79,10.0,North,5.8,-,N/A,,Overcast,10,2013-06-27 14:19:00
10:53 AM,80.6,71.6,74,29.79,10.0,Variable,5.8,-,N/A,,Scattered Clouds,0,2013-06-27 14:53:00
10:56 AM,81.0,71.1,72,29.79,10.0,Variable,5.8,-,N/A,,Scattered Clouds,0,2013-06-27 14:56:00
11:07 AM,80.6,71.6,74,29.79,9.0,Variable,4.6,-,N/A,,Mostly Cloudy,0,2013-06-27 15:07:00
11:56 AM,79.0,71.1,77,29.78,10.0,Variable,3.5,-,N/A,,Overcast,0,2013-06-27 15:56:00
12:30 PM,80.6,69.8,70,29.78,10.0,SSE,11.5,-,N/A,,Scattered Clouds,150,2013-06-27 16:30:00
12:56 PM,79.0,69.1,72,29.78,10.0,SSE,13.8,-,N/A,,Clear,160,2013-06-27 16:56:00
1:56 PM,78.1,70.0,76,29.77,10.0,SSE,11.5,-,N/A,,Clear,150,2013-06-27 17:56:00
2:29 PM,77.0,69.8,78,29.77,9.0,Variable,6.9,-,N/A,,Scattered Clouds,0,2013-06-27 18:29:00
2:56 PM,78.1,70.0,76,29.77,10.0,SE,6.9,-,N/A,,Scattered Clouds,140,2013-06-27 18:56:00
3:04 PM,78.8,69.8,74,29.77,10.0,SSE,11.5,-,N/A,,Mostly Cloudy,150,2013-06-27 19:04:00
3:56 PM,78.1,70.0,76,29.77,9.0,South,10.4,-,N/A,,Overcast,190,2013-06-27 19:56:00
4:56 PM,77.0,70.0,79,29.75,9.0,SSE,8.1,-,N/A,,Overcast,150,2013-06-27 20:56:00
5:56 PM,75.0,69.1,82,29.73,8.0,SSE,11.5,-,N/A,,Mostly Cloudy,160,2013-06-27 21:56:00
6:03 PM,75.2,69.8,83,29.73,8.0,South,10.4,-,N/A,,Mostly Cloudy,170,2013-06-27 22:03:00
6:56 PM,73.9,70.0,87,29.73,7.0,South,8.1,-,N/A,,Overcast,170,2013-06-27 22:56:00
7:56 PM,73.0,69.1,87,29.73,8.0,SE,6.9,-,N/A,,Mostly Cloudy,140,2013-06-27 23:56:00
8:25 PM,71.6,69.8,94,29.72,8.0,SE,4.6,-,N/A,,Mostly Cloudy,130,2013-06-28 00:25:00
8:41 PM,71.6,69.8,94,29.71,8.0,ESE,4.6,-,N/A,,Mostly Cloudy,110,2013-06-28 00:41:00
8:51 PM,71.6,69.8,94,29.71,9.0,ESE,5.8,-,N/A,,Mostly Cloudy,120,2013-06-28 00:51:00
8:56 PM,72.0,69.1,91,29.70,9.0,ESE,5.8,-,N/A,,Mostly Cloudy,110,2013-06-28 00:56:00
9:56 PM,72.0,69.1,91,29.68,8.0,SE,8.1,-,N/A,,Overcast,130,2013-06-28 01:56:00
10:15 PM,71.6,69.8,94,29.68,1.5,ESE,10.4,-,0.21,Rain,Heavy Rain,120,2013-06-28 02:15:00
10:53 PM,73.4,71.6,94,29.66,5.0,SSE,13.8,23.0,N/A,,Overcast,160,2013-06-28 02:53:00
10:56 PM,73.9,72.0,93,29.65,5.0,SSE,16.1,23.0,N/A,,Overcast,160,2013-06-28 02:56:00
11:56 PM,73.0,72.0,96,29.64,6.0,South,15.0,23.0,0.00,Rain,Light Rain,170,2013-06-28 03:56:00